Dewpoint
41 42 41 42 43 46 46 43 38 49 50 39 39 37 37 35 36 38 38 35 30 20 20 19 19 18 22 31 29 24 30 28 24 23 28 23 26 24 20 15 14 25 23 20
41 42 41 42 42 45 44 40 41 49 46 35 34 37 37 36 34 36 36 32 30 25 23 20 23 24 31 33 28 27 31 26 21 23 25 27 24 21 23 25 24 18 16 18
43 41 40 41 42 45 44 40 35 43 45 39 32 34 36 36 34 37 38 37 36 28 24 27 27 30 34 35 31 34 29 24 17 17 21 25 24 24 22 23 20 20 21 19
41 40 40 41 41 46 44 41 36 38 35 38 33 33 34 34 31 36 36 34 35 32 23 26 24 33 35 35 32 32 28 22 24 23 28 27 24 24 24 22 21 18 18 21
40 40 40 41 42 46 43 37 39 40 40 37 37 33 31 30 29 32 32 34 33 30 24 24 25 31 34 29 34 29 33 22 29 24 28 27 24 24 24 24 23 22 21 19
39 40 42 41 43 46 41 41 45 41 36 38 37 36 31 29 29 31 32 34 33 30 26 31 33 35 34 33 30 31 31 29 26 21 26 24 22 22 21 22 24 23 20 21
38 38 40 42 44 47 42 42 43 40 36 39 37 36 33 30 31 28 33 33 33 35 40 38 37 39 40 41 41 37 32 30 28 24 24 21 25 25 24 23 23 24 23 25
39 39 41 43 43 44 45 46 43 43 35 40 39 37 36 32 33 35 32 37 36 41 37 33 31 30 29 35 37 39 39 32 29 24 22 24 22 19 18 18 23 25 25 26
41 41 42 43 43 43 44 45 47 44 41 38 40 38 34 33 35 35 40 45 45 44 36 29 25 24 26 28 28 33 36 33 28 31 21 19 21 25 25 24 23 28 28 28
41 41 42 42 43 43 45 43 47 43 42 43 40 36 34 34 39 35 44 42 42 42 33 28 25 26 28 25 25 27 29 31 27 25 22 18 25 27 23 11 16 30 31 31
41 41 41 42 43 43 45 43 47 44 43 45 47 38 35 38 40 38 43 43 43 40 32 29 32 28 31 31 32 29 25 29 29 30 24 19 31 24 20 24 32 30 31 32
42 42 42 43 43 44 45 43 47 47 44 44 48 51 50 40 43 43 45 39 42 43 35 37 36 33 33 30 31 35 24 26 24 27 24 30 27 28 34 32 30 31 36 38
41 42 43 43 44 45 45 44 48 46 42 43 48 47 48 49 45 45 39 43 45 45 42 39 38 30 34 29 29 31 33 36 32 32 30 32 30 35 35 38 38 39 39 39
43 43 44 45 45 46 45 44 46 46 46 42 43 51 48 50 49 47 46 42 47 50 43 36 34 29 37 31 31 30 33 32 31 30 38 38 40 40 38 35 35 34 34 31
44 45 45 44 45 46 46 46 46 48 45 41 41 46 48 51 51 51 51 49 47 41 34 31 31 39 39 37 35 33 33 31 28 26 33 35 38 37 36 35 35 34 33 33
45 45 45 45 45 46 45 40 44 47 46 43 37 49 48 49 51 48 48 49 48 46 41 42 41 43 35 31 31 36 38 38 35 37 39 37 37 37 36 35 35 35 34 34
45 45 45 45 45 47 42 39 48 48 48 42 40 42 48 49 49 48 48 49 48 46 45 41 38 40 37 30 29 37 39 39 38 38 37 36 37 35 36 35 35 35 34 34
46 46 46 47 47 49 44 49 51 51 46 46 39 41 44 48 44 45 47 45 44 44 43 43 39 42 37 27 36 37 37 37 37 37 38 37 35 35 34 34 33 32 33 33
46 47 47 47 46 45 43 50 50 50 48 41 41 39 40 44 42 42 43 41 38 41 41 41 37 37 36 36 36 36 35 35 36 36 36 35 34 33 33 32 33 32 31 28
47 46 44 40 45 51 49 46 44 42 43 40 39 41 40 42 39 40 39 39 37 32 37 39 34 33 35 37 37 38 37 36 36 34 33 33 32 32 33 33 31 29 28 27
45 45 43 48 49 47 44 39 37 37 35 38 39 40 40 44 37 38 38 37 36 30 35 33 34 31 34 36 36 36 36 36 36 35 34 34 34 33 31 29 28 28 28 29
48 47 49 47 43 38 35 33 36 35 34 36 38 40 42 42 42 38 37 35 34 31 37 33 32 33 36 35 35 35 35 35 34 34 34 34 32 30 29 28 28 28 29 29
46 41 38 36 34 31 30 29 31 32 34 36 38 37 39 40 39 37 36 33 32 34 32 30 31 35 35 34 34 34 34 33 33 32 32 31 30 30 30 28 29 29 27 25
35 33 31 32 29 29 29 30 31 32 33 36 37 36 37 37 36 35 34 34 35 31 28 29 32 35 35 34 33 32 31 31 30 30 29 29 29 29 29 28 26 25 23 20
32 32 27 28 30 31 32 32 32 33 35 36 37 36 37 34 33 33 32 31 29 30 29 31 34 36 33 32 30 30 30 29 29 29 28 28 28 28 26 26 25 24 19 18
31 30 30 31 31 30 31 31 32 35 35 36 36 33 31 30 32 31 29 28 27 28 30 32 34 31 30 30 30 30 29 29 29 29 28 27 26 25 24 22 22 22 18 16
29 28 31 31 31 30 31 31 33 35 34 32 32 29 28 32 28 25 27 25 28 30 32 34 34 32 32 33 32 32 31 30 30 29 28 26 25 24 21 18 18 19 18 17
Wind_Speed
33 35 32 30 30 28 26 14 17 23 24 17 15 31 19 12 29 11 12 8 12 16 20 17 18 20 11 8 16 15 14 7 8 13 13 15 8 13 7 6 5 1 3 7
37 38 32 31 32 36 25 12 11 19 26 24 30 11 23 25 20 10 7 7 10 4 8 9 7 6 5 9 7 17 14 5 5 2 2 8 10 12 8 6 5 10 10 6
39 36 31 31 31 36 25 11 19 11 16 20 31 28 22 29 20 25 18 14 10 6 4 5 9 6 3 4 14 5 11 7 10 17 12 5 4 5 7 7 6 7 13 13
39 35 34 32 32 34 30 13 14 15 28 33 25 31 20 29 21 19 13 17 24 15 7 5 6 6 2 3 8 5 4 8 6 5 2 2 0 4 2 4 8 10 16 16
38 36 37 34 33 38 31 16 9 16 5 24 30 29 34 35 27 19 27 20 19 15 9 10 14 12 9 9 5 7 2 6 3 7 3 1 4 7 7 7 4 8 9 9
37 36 32 35 34 39 13 19 7 15 20 30 32 34 34 37 28 21 37 17 23 16 17 9 15 16 16 14 11 6 7 11 7 10 3 4 8 12 11 10 6 6 9 4
37 35 31 36 38 29 9 17 4 12 20 25 35 33 32 36 29 32 19 30 20 6 26 19 18 21 17 16 9 9 10 8 4 5 3 9 8 7 7 11 6 14 18 14
34 37 32 35 36 31 17 3 7 5 18 22 22 35 30 24 27 30 37 14 13 25 7 7 7 4 4 7 7 6 2 9 5 7 9 5 8 4 9 6 5 4 15 14
36 33 35 34 32 33 23 21 1 5 7 26 20 30 33 29 24 26 10 2 5 5 6 5 7 9 7 7 4 8 11 8 5 5 5 9 8 5 4 11 9 7 12 9
33 34 34 33 32 33 23 16 12 3 7 5 27 29 36 28 14 21 6 9 5 4 7 6 6 6 11 12 12 7 4 2 10 7 6 8 14 7 3 9 8 10 13 12
31 33 34 36 31 30 25 18 15 8 7 11 3 21 26 25 24 22 8 10 1 5 8 8 6 6 7 7 10 10 12 11 6 4 3 11 8 5 7 9 8 14 11 10
33 32 33 29 27 32 30 7 13 12 5 7 14 20 19 25 16 12 6 12 10 6 6 3 7 4 5 9 11 4 6 9 9 13 9 5 5 5 14 16 14 8 14 12
31 29 29 26 32 32 23 8 7 3 8 15 7 7 5 9 23 22 12 3 5 7 7 10 5 5 7 9 8 9 4 8 6 6 1 3 6 10 10 14 19 15 14 16
31 32 31 32 30 27 17 7 7 5 7 4 6 8 6 6 19 15 10 18 10 11 5 5 5 7 8 10 7 8 7 13 10 5 8 18 12 12 17 20 19 21 20 18
26 29 29 30 26 23 12 3 5 2 5 5 7 16 7 4 18 19 23 21 19 9 8 3 4 6 7 2 4 7 10 11 14 10 17 10 8 9 13 21 17 16 23 20
24 27 26 26 27 24 12 5 15 11 2 6 1 9 8 6 12 22 24 11 10 6 6 5 4 1 3 9 8 2 5 6 13 10 10 20 19 16 14 21 18 17 21 19
24 24 24 25 26 20 11 9 2 24 14 5 3 7 6 7 6 6 8 6 10 2 4 3 5 3 4 5 10 12 9 15 21 26 27 16 4 12 16 22 21 22 21 18
25 25 24 26 26 7 12 4 9 20 5 5 4 1 4 8 3 6 4 5 5 8 3 2 4 4 2 4 7 18 15 20 16 9 13 19 24 21 19 19 20 22 20 17
24 26 25 10 7 7 7 4 6 11 10 8 7 10 6 3 2 4 4 5 5 3 3 2 2 1 5 3 20 21 21 10 20 22 25 23 24 21 18 18 16 21 17 16
30 18 7 3 2 15 12 6 3 4 1 5 5 1 3 4 4 6 4 6 4 4 1 2 4 3 4 6 8 11 18 27 28 29 18 22 21 21 16 16 14 15 14 14
7 6 4 6 16 3 7 6 4 2 4 7 5 5 7 9 6 6 5 4 2 5 2 7 4 6 4 7 14 13 18 17 10 18 19 19 24 22 20 16 15 15 14 14
8 12 9 4 3 3 3 5 4 6 2 2 3 3 4 5 5 6 2 4 2 3 4 4 7 5 12 16 17 18 20 23 23 23 23 21 20 19 20 17 15 15 14 13
9 5 5 4 7 8 4 3 3 2 1 1 3 6 4 4 6 4 4 3 2 3 3 4 2 11 11 18 19 20 21 25 24 22 22 21 19 17 20 19 15 15 15 12
6 4 5 6 5 6 4 3 3 1 2 4 6 6 3 3 5 2 5 2 4 3 5 6 8 13 14 16 19 23 19 21 21 21 20 20 20 18 17 16 16 17 16 12
10 9 7 7 3 4 3 3 2 2 2 1 3 6 4 5 4 4 4 2 3 2 4 3 9 10 15 20 19 20 20 19 19 18 19 18 17 17 17 15 15 16 15 14
6 8 5 6 8 10 7 7 4 5 2 1 1 4 5 4 3 3 2 5 2 2 2 3 10 15 15 18 18 18 16 17 17 15 16 16 15 16 16 15 14 14 14 14
6 5 4 2 4 4 1 2 4 5 2 4 4 5 4 2 4 4 5 3 2 2 5 8 13 15 17 18 18 17 16 16 16 16 14 15 14 16 16 15 11 11 14 13
Wind_Direction
201 209 196 198 205 205 192 204 198 160 143 175 218 220 200 239 253 258 268 285 248 223 195 201 212 213 217 141 167 183 180 157 192 216 235 200 243 250 210 211 240 160 191 250
195 199 189 196 204 202 185 198 180 173 162 193 217 215 212 228 245 224 236 252 227 191 173 175 173 192 191 165 149 159 175 163 178 302 290 242 236 210 206 135 122 212 220 253
195 195 192 201 202 207 188 186 175 178 195 214 201 200 205 216 238 246 260 273 297 254 182 202 160 148 275 130 154 169 157 154 196 203 194 184 211 249 205 165 207 211 222 242
189 191 198 200 198 211 190 208 197 173 198 205 210 190 199 217 226 216 216 249 242 254 190 137 177 129 225 99 138 135 157 184 178 194 187 164 319 275 286 183 230 213 245 220
187 193 199 201 200 208 198 195 198 157 226 196 196 192 208 210 215 229 219 240 255 212 200 179 201 160 202 173 167 146 116 198 198 207 102 89 245 275 276 256 240 242 267 258
187 191 201 199 203 193 196 224 280 176 207 185 188 202 198 215 208 218 237 221 240 248 218 170 187 174 184 158 159 147 159 161 177 225 345 351 279 249 245 258 250 233 252 217
190 194 198 194 195 201 198 212 268 212 194 189 199 194 199 210 207 210 216 231 232 212 119 98 68 69 84 103 88 142 154 146 148 199 118 245 245 293 242 108 65 112 110 112
189 194 190 201 198 202 209 224 207 265 199 194 195 198 206 208 213 211 227 250 213 161 107 105 106 36 62 28 42 87 150 141 150 183 202 298 286 219 173 148 106 109 123 125
183 181 193 191 193 199 217 225 342 298 219 212 186 194 201 202 202 221 212 216 181 131 106 114 156 174 161 161 130 64 86 102 172 154 194 219 245 211 153 123 152 169 130 124
182 184 187 191 192 201 212 214 212 310 291 218 183 198 199 196 189 201 167 164 190 78 133 148 156 174 166 161 175 175 123 76 190 174 218 273 247 230 120 190 191 153 131 127
182 183 188 194 193 200 200 212 196 176 268 285 256 194 196 193 195 188 167 135 320 97 151 163 170 144 176 138 170 172 172 172 179 123 204 255 196 148 198 156 139 135 124 123
180 182 186 193 189 199 184 211 208 252 278 287 319 281 264 213 171 153 157 187 152 141 134 179 126 145 137 140 183 159 178 182 184 187 213 225 202 168 140 144 140 137 128 129
192 188 183 186 189 182 168 169 137 180 315 288 236 256 320 194 180 164 166 214 165 114 231 156 145 131 138 168 182 154 221 167 156 158 320 147 101 98 113 131 126 114 113 125
163 173 178 177 169 171 160 153 193 164 263 275 290 344 305 309 147 154 161 174 146 124 99 103 138 147 188 185 164 163 180 161 163 112 117 88 71 94 117 106 98 93 80 89
163 160 158 162 157 150 138 155 234 276 308 334 287 324 305 44 118 125 119 135 141 149 150 121 141 132 139 109 122 179 174 168 180 205 183 138 146 118 119 110 105 102 106 91
150 153 150 146 142 138 140 200 235 221 261 304 87 309 335 25 147 132 119 114 73 55 117 120 120 120 147 152 184 213 195 187 160 155 134 117 109 93 101 104 102 97 97 100
145 142 149 154 156 163 176 186 107 151 148 255 107 295 343 341 348 60 65 51 85 89 103 89 133 125 108 132 182 168 126 109 113 120 116 110 142 127 106 103 103 99 96 95
147 151 152 154 166 211 220 204 134 143 159 260 145 216 324 335 22 95 350 85 73 38 97 85 101 111 64 197 155 138 121 104 108 109 86 117 118 111 109 111 112 103 99 99
141 146 142 141 214 176 200 68 153 191 207 183 159 161 184 331 65 75 56 45 90 3 92 96 116 44 206 225 160 150 145 137 125 104 106 112 113 118 118 115 110 110 109 101
149 138 192 132 117 95 108 274 262 155 291 32 95 203 165 75 52 57 72 37 96 134 4 68 77 75 356 72 103 140 127 126 126 114 117 120 121 125 122 117 113 112 110 104
184 163 88 94 77 128 186 206 135 46 61 10 15 32 83 13 88 94 39 100 74 151 183 166 157 163 161 81 80 102 128 132 108 117 126 129 130 129 122 110 103 102 101 103
134 98 83 93 141 186 118 39 24 46 92 34 103 43 87 56 70 86 117 106 97 167 158 136 164 181 138 114 102 92 98 102 102 110 115 115 115 117 113 114 111 109 110 111
84 36 76 25 12 59 69 112 83 131 253 92 85 74 64 77 62 99 106 98 130 113 109 157 150 152 135 128 116 107 107 105 105 102 100 102 104 108 118 118 118 115 110 108
80 100 89 53 44 54 47 68 92 30 343 70 99 87 90 66 65 54 108 110 135 145 173 203 167 156 133 132 126 121 117 111 111 111 112 113 115 112 115 122 126 121 116 109
46 37 42 44 76 68 61 33 50 355 301 58 128 86 101 76 99 59 105 121 160 183 178 171 157 128 120 128 126 121 118 116 113 117 120 121 122 118 114 115 118 118 117 111
60 44 60 17 48 31 25 30 11 330 257 187 68 101 76 80 106 98 51 150 153 161 128 137 128 122 123 123 115 113 119 119 119 122 124 123 126 126 124 120 121 126 123 117
56 52 29 114 107 65 61 292 315 302 146 66 33 58 68 99 70 54 21 41 4 70 80 88 120 125 125 122 121 127 125 123 125 124 123 124 123 125 123 122 117 118 128 119